sat.trackr.live / text

‹ back to catalog

GSAT0213 (GALILEO 17)

NORAD 41861 · 2016-069C

PAYLOAD ACTIVE UNKNOWN

§ Identity

Operator
Country
ESA
Launch date
2016-11-17
Launch site
FRGUI
Launch vehicle
Mass (kg)
RCS (m²)
14.17

Purposes: earth_obs, nav

External: N2YO · Heavens-Above · Gunter

§ Orbital elements

Epoch: 2026-09-15T07:12:15.355008Z

Period
844.70 min
Inclination
55.5571°
Eccentricity
0.0002003
Mean motion
1.70474479 rev/d
Perigee alt
23,216.2 km
Apogee alt
23,228.1 km
Semi-major
29,600.3 km
B*
0.0000e+0
RAAN
98.5941°
Arg perigee
331.4312°
Mean anomaly
28.6313°
Rev number
6,105

§ Raw data

GSAT0213 (GALILEO 17)1 41861U 16069C   26258.30017772  .00000003  00000+0  00000+0 0  99932 41861  55.5571  98.5941 0002003 331.4312  28.6313  1.70474479 61056

JSON: /api/v1/satellites/41861 · /tle

For live sub-satellite position, see the globe view (requires WebGL).

§ Visibility from observer

Set your observer location to see the next 7 days of passes ≥ 10°. The values pass through the URL so the page stays shareable.

No JS? Fill the form by hand. The geolocation button needs JavaScript.